Year,Month,Day,Hour,Minute,Value (Times are PST for windgust in km/hr)
2015,05,04,02,53,3.20
2015,05,04,02,54,1.60
2015,05,04,02,55,1.60
2015,05,04,02,56,1.60
2015,05,04,02,57,1.60
2015,05,04,03,07,3.20
2015,05,04,03,08,3.20
2015,05,04,03,09,3.20
2015,05,04,03,10,4.80
2015,05,04,03,11,4.80
2015,05,04,03,12,1.60
2015,05,04,03,13,1.60
2015,05,04,03,14,1.60
2015,05,04,03,15,3.20
2015,05,04,03,16,1.60
2015,05,04,03,17,1.60
2015,05,04,03,19,1.60
2015,05,04,03,20,1.60
2015,05,04,03,56,1.60
2015,05,04,03,57,1.60
2015,05,04,03,58,1.60
2015,05,04,03,59,1.60
2015,05,04,04,00,1.60
2015,05,04,04,01,1.60
2015,05,04,04,02,1.60
2015,05,04,04,03,1.60
2015,05,04,04,04,1.60
2015,05,04,04,05,1.60
2015,05,04,04,06,1.60
2015,05,04,04,07,1.60
2015,05,04,04,08,1.60
2015,05,04,04,09,1.60
2015,05,04,04,10,1.60
2015,05,04,04,11,1.60
2015,05,04,04,12,1.60
2015,05,04,04,13,1.60
2015,05,04,04,14,1.60
2015,05,04,04,15,1.60
2015,05,04,04,16,1.60
2015,05,04,04,17,1.60
2015,05,04,04,18,3.20
2015,05,04,04,19,1.60
2015,05,04,04,20,3.20
2015,05,04,04,21,3.20
2015,05,04,04,22,1.60
2015,05,04,04,23,1.60
2015,05,04,04,24,3.20
2015,05,04,04,25,1.60
2015,05,04,04,26,1.60
2015,05,04,04,27,3.20
2015,05,04,04,28,3.20
2015,05,04,04,29,3.20
2015,05,04,04,30,1.60
2015,05,04,04,31,3.20
2015,05,04,04,32,3.20
2015,05,04,04,33,1.60
2015,05,04,04,34,3.20
2015,05,04,04,35,1.60
2015,05,04,04,36,1.60
2015,05,04,04,37,1.60
2015,05,04,04,38,3.20
2015,05,04,04,39,4.80
2015,05,04,04,40,3.20
2015,05,04,04,41,3.20
2015,05,04,04,42,3.20
2015,05,04,04,43,3.20
2015,05,04,04,44,3.20
2015,05,04,04,45,1.60
2015,05,04,04,46,1.60
2015,05,04,04,49,1.60
2015,05,04,04,50,4.80
2015,05,04,04,51,1.60
2015,05,04,04,52,1.60
2015,05,04,04,53,1.60
2015,05,04,04,54,1.60
2015,05,04,04,55,1.60
2015,05,04,04,56,3.20
2015,05,04,04,57,3.20
2015,05,04,05,56,1.60
2015,05,04,05,57,3.20
2015,05,04,05,58,1.60
2015,05,04,05,59,1.60
2015,05,04,06,00,3.20
2015,05,04,06,01,1.60
2015,05,04,06,02,1.60
2015,05,04,06,03,1.60
2015,05,04,06,04,1.60
2015,05,04,06,05,1.60
2015,05,04,06,06,1.60
2015,05,04,06,07,1.60
2015,05,04,06,12,1.60
2015,05,04,06,13,1.60
2015,05,04,06,14,3.20
2015,05,04,06,15,1.60
2015,05,04,06,16,1.60
2015,05,04,06,17,1.60
2015,05,04,06,18,3.20
2015,05,04,06,19,1.60
2015,05,04,06,20,3.20
2015,05,04,06,21,3.20
2015,05,04,06,22,1.60
2015,05,04,06,23,4.80
2015,05,04,06,24,4.80
2015,05,04,06,25,6.40
2015,05,04,06,28,8.10
2015,05,04,06,29,4.80
2015,05,04,06,30,3.20
2015,05,04,06,31,3.20
2015,05,04,06,32,3.20
2015,05,04,06,33,1.60
2015,05,04,06,34,4.80
2015,05,04,06,35,4.80
2015,05,04,06,36,6.40
2015,05,04,06,37,4.80
2015,05,04,06,38,4.80
2015,05,04,06,39,4.80
2015,05,04,06,40,8.10
2015,05,04,06,41,6.40
2015,05,04,06,42,17.70
2015,05,04,06,43,9.60
2015,05,04,06,44,6.40
2015,05,04,06,45,4.80
2015,05,04,06,46,11.30
2015,05,04,06,47,17.70
2015,05,04,06,48,14.50
2015,05,04,06,49,16.10
2015,05,04,06,50,11.30
2015,05,04,06,51,4.80
2015,05,04,06,52,12.90
2015,05,04,06,53,11.30
2015,05,04,06,54,3.20
2015,05,04,06,55,9.60
2015,05,04,06,56,11.30
2015,05,04,06,57,9.60
2015,05,04,06,58,12.90
2015,05,04,06,59,11.30
2015,05,04,07,00,4.80
2015,05,04,07,01,8.10
2015,05,04,07,02,8.10
2015,05,04,07,03,4.80
2015,05,04,07,04,9.60
2015,05,04,07,05,12.90
2015,05,04,07,06,4.80
2015,05,04,07,07,14.50
2015,05,04,07,08,4.80
2015,05,04,07,09,9.60
2015,05,04,07,10,11.30
2015,05,04,07,11,14.50
2015,05,04,07,12,4.80
2015,05,04,07,13,3.20
2015,05,04,07,14,3.20
2015,05,04,07,15,6.40
2015,05,04,07,16,11.30
2015,05,04,07,17,9.60
2015,05,04,07,18,9.60
2015,05,04,07,19,9.60
2015,05,04,07,20,4.80
2015,05,04,07,21,11.30
2015,05,04,07,22,4.80
2015,05,04,07,23,8.10
2015,05,04,07,24,16.10
2015,05,04,07,25,8.10
2015,05,04,07,26,11.30
2015,05,04,07,27,14.50
2015,05,04,07,28,12.90
2015,05,04,07,29,14.50
2015,05,04,07,30,6.40
2015,05,04,07,31,4.80
2015,05,04,07,32,6.40
2015,05,04,07,33,6.40
2015,05,04,07,34,8.10
2015,05,04,07,35,4.80
2015,05,04,07,36,11.30
2015,05,04,07,37,4.80
2015,05,04,07,38,3.20
2015,05,04,07,39,8.10
2015,05,04,07,40,14.50
2015,05,04,07,41,12.90
2015,05,04,07,42,6.40
2015,05,04,07,43,12.90
2015,05,04,07,44,6.40
2015,05,04,07,45,1.60
2015,05,04,07,46,9.60
2015,05,04,07,47,14.50
2015,05,04,07,48,9.60
2015,05,04,07,49,9.60
2015,05,04,07,50,6.40
2015,05,04,07,51,17.70
2015,05,04,07,52,14.50
2015,05,04,07,53,17.70
2015,05,04,07,54,9.60
2015,05,04,07,55,14.50
2015,05,04,07,56,6.40
2015,05,04,07,57,12.90
2015,05,04,07,58,11.30
2015,05,04,07,59,9.60
2015,05,04,08,00,6.40
2015,05,04,08,01,6.40
2015,05,04,08,02,9.60
2015,05,04,08,03,12.90
2015,05,04,08,04,6.40
2015,05,04,08,05,16.10
2015,05,04,08,06,6.40
2015,05,04,08,07,12.90
2015,05,04,08,08,14.50
2015,05,04,08,09,8.10
2015,05,04,08,10,3.20
2015,05,04,08,11,6.40
2015,05,04,08,12,20.90
2015,05,04,08,13,17.70
2015,05,04,08,14,11.30
2015,05,04,08,15,11.30
2015,05,04,08,16,4.80
2015,05,04,08,17,16.10
2015,05,04,08,18,9.60
2015,05,04,08,19,17.70
2015,05,04,08,20,6.40
2015,05,04,08,21,11.30
2015,05,04,08,22,17.70
2015,05,04,08,23,11.30
2015,05,04,08,24,12.90
2015,05,04,08,25,8.10
2015,05,04,08,26,6.40
2015,05,04,08,27,17.70
2015,05,04,08,28,6.40
2015,05,04,08,29,12.90
2015,05,04,08,30,12.90
2015,05,04,08,31,16.10
2015,05,04,08,32,16.10
2015,05,04,08,33,14.50
2015,05,04,08,34,19.30
2015,05,04,08,35,19.30
2015,05,04,08,36,8.10
2015,05,04,08,37,8.10
2015,05,04,08,38,8.10
2015,05,04,08,39,11.30
2015,05,04,08,40,16.10
2015,05,04,08,41,3.20
2015,05,04,08,42,11.30
2015,05,04,08,43,9.60
2015,05,04,08,44,6.40
2015,05,04,08,45,6.40
2015,05,04,08,46,8.10
2015,05,04,08,47,6.40
2015,05,04,08,48,16.10
2015,05,04,08,49,17.70
2015,05,04,08,50,20.90
2015,05,04,08,51,20.90
2015,05,04,08,52,4.80
2015,05,04,08,53,17.70
2015,05,04,08,54,9.60
2015,05,04,08,55,14.50
2015,05,04,08,56,9.60
2015,05,04,08,57,11.30
2015,05,04,08,58,12.90
2015,05,04,08,59,4.80
2015,05,04,09,00,17.70
2015,05,04,09,01,11.30
2015,05,04,09,02,4.80
2015,05,04,09,03,4.80
2015,05,04,09,04,4.80
2015,05,04,09,05,17.70
2015,05,04,09,06,14.50
2015,05,04,09,07,9.60
2015,05,04,09,08,9.60
2015,05,04,09,09,6.40
2015,05,04,09,10,11.30
2015,05,04,09,11,14.50
2015,05,04,09,12,12.90
2015,05,04,09,13,17.70
2015,05,04,09,14,9.60
2015,05,04,09,15,16.10
2015,05,04,09,16,12.90
2015,05,04,09,17,6.40
2015,05,04,09,18,12.90
2015,05,04,09,19,17.70
2015,05,04,09,20,9.60
2015,05,04,09,21,17.70
2015,05,04,09,22,24.20
2015,05,04,09,23,20.90
2015,05,04,09,24,20.90
2015,05,04,09,25,14.50
2015,05,04,09,26,20.90
2015,05,04,09,27,17.70
2015,05,04,09,28,22.50
2015,05,04,09,29,16.10
2015,05,04,09,30,9.60
2015,05,04,09,31,6.40
2015,05,04,09,32,8.10
2015,05,04,09,33,32.20
2015,05,04,09,34,17.70
2015,05,04,09,35,20.90
2015,05,04,09,36,22.50
2015,05,04,09,37,6.40
2015,05,04,09,38,12.90
2015,05,04,09,39,8.10
2015,05,04,09,40,12.90
2015,05,04,09,41,16.10
2015,05,04,09,42,22.50
2015,05,04,09,43,17.70
2015,05,04,09,44,17.70
2015,05,04,09,45,11.30
2015,05,04,09,46,11.30
2015,05,04,09,47,14.50
2015,05,04,09,48,22.50
2015,05,04,09,49,19.30
2015,05,04,09,50,14.50
2015,05,04,09,51,14.50
2015,05,04,09,52,12.90
2015,05,04,09,53,6.40
2015,05,04,09,54,19.30
2015,05,04,09,55,17.70
2015,05,04,09,56,3.20
2015,05,04,09,57,17.70
2015,05,04,09,58,12.90
2015,05,04,09,59,6.40
2015,05,04,10,00,14.50
2015,05,04,10,01,3.20
2015,05,04,10,02,8.10
2015,05,04,10,03,14.50
2015,05,04,10,04,6.40
2015,05,04,10,05,4.80
2015,05,04,10,06,11.30
2015,05,04,10,07,20.90
2015,05,04,10,08,9.60
2015,05,04,10,09,14.50
2015,05,04,10,10,14.50
2015,05,04,10,11,11.30
2015,05,04,10,12,16.10
2015,05,04,10,13,24.20
2015,05,04,10,14,16.10
2015,05,04,10,15,20.90
2015,05,04,10,16,17.70
2015,05,04,10,17,14.50
2015,05,04,10,18,17.70
2015,05,04,10,19,16.10
2015,05,04,10,20,17.70
2015,05,04,10,21,17.70
2015,05,04,10,22,20.90
2015,05,04,10,23,9.60
2015,05,04,10,24,11.30
2015,05,04,10,25,22.50
2015,05,04,10,26,16.10
2015,05,04,10,27,29.00
2015,05,04,10,28,8.10
2015,05,04,10,29,12.90
2015,05,04,10,30,9.60
2015,05,04,10,31,8.10
2015,05,04,10,32,17.70
2015,05,04,10,33,16.10
2015,05,04,10,34,11.30
2015,05,04,10,35,14.50
2015,05,04,10,36,8.10
2015,05,04,10,37,25.70
2015,05,04,10,38,20.90
2015,05,04,10,39,14.50
2015,05,04,10,40,11.30
2015,05,04,10,41,6.40
2015,05,04,10,42,22.50
2015,05,04,10,43,14.50
2015,05,04,10,44,17.70
2015,05,04,10,45,16.10
2015,05,04,10,46,16.10
2015,05,04,10,47,16.10
2015,05,04,10,48,17.70
2015,05,04,10,49,24.20
2015,05,04,10,50,20.90
2015,05,04,10,51,12.90
2015,05,04,10,52,16.10
2015,05,04,10,53,24.20
2015,05,04,10,54,32.20
2015,05,04,10,55,24.20
2015,05,04,10,56,14.50
2015,05,04,10,57,11.30
2015,05,04,10,58,8.10
2015,05,04,10,59,17.70
2015,05,04,11,00,8.10
2015,05,04,11,01,22.50
2015,05,04,11,02,20.90
2015,05,04,11,03,17.70
2015,05,04,11,04,14.50
2015,05,04,11,05,22.50
2015,05,04,11,06,22.50
2015,05,04,11,07,14.50
2015,05,04,11,08,11.30
2015,05,04,11,09,19.30
2015,05,04,11,10,11.30
2015,05,04,11,11,27.40
2015,05,04,11,12,16.10
2015,05,04,11,13,9.60
2015,05,04,11,14,11.30
2015,05,04,11,15,14.50
2015,05,04,11,16,17.70
2015,05,04,11,17,19.30
2015,05,04,11,18,11.30
2015,05,04,11,19,11.30
2015,05,04,11,20,11.30
2015,05,04,11,21,4.80
2015,05,04,11,22,11.30
2015,05,04,11,23,9.60
2015,05,04,11,24,8.10
2015,05,04,11,25,6.40
2015,05,04,11,26,14.50
2015,05,04,11,27,14.50
2015,05,04,11,28,12.90
2015,05,04,11,29,9.60
2015,05,04,11,30,11.30
2015,05,04,11,31,6.40
2015,05,04,11,32,12.90
2015,05,04,11,33,14.50
2015,05,04,11,34,27.40
2015,05,04,11,35,11.30
2015,05,04,11,36,20.90
2015,05,04,11,37,17.70
2015,05,04,11,38,14.50
2015,05,04,11,39,14.50
2015,05,04,11,40,14.50
2015,05,04,11,41,9.60
2015,05,04,11,42,19.30
2015,05,04,11,43,22.50
2015,05,04,11,44,11.30
2015,05,04,11,45,8.10
2015,05,04,11,46,9.60
2015,05,04,11,47,19.30
2015,05,04,11,48,14.50
2015,05,04,11,49,11.30
2015,05,04,11,50,16.10
2015,05,04,11,51,9.60
2015,05,04,11,52,17.70
2015,05,04,11,53,19.30
2015,05,04,11,54,20.90
2015,05,04,11,55,14.50
2015,05,04,11,56,17.70
2015,05,04,11,57,16.10
2015,05,04,11,58,22.50
2015,05,04,11,59,11.30
2015,05,04,12,00,20.90
2015,05,04,12,01,22.50
2015,05,04,12,02,32.20
2015,05,04,12,03,22.50
2015,05,04,12,04,14.50
2015,05,04,12,05,16.10
2015,05,04,12,06,24.20
2015,05,04,12,07,14.50
2015,05,04,12,08,11.30
2015,05,04,12,09,30.60
2015,05,04,12,10,16.10
2015,05,04,12,11,4.80
2015,05,04,12,12,12.90
2015,05,04,12,13,24.20
2015,05,04,12,14,9.60
2015,05,04,12,15,19.30
2015,05,04,12,16,20.90
2015,05,04,12,17,19.30
2015,05,04,12,18,25.70
2015,05,04,12,19,12.90
2015,05,04,12,20,17.70
2015,05,04,12,21,9.60
2015,05,04,12,22,19.30
2015,05,04,12,23,12.90
2015,05,04,12,24,24.20
2015,05,04,12,25,24.20
2015,05,04,12,26,19.30
2015,05,04,12,27,16.10
2015,05,04,12,28,8.10
2015,05,04,12,29,14.50
2015,05,04,12,30,11.30
2015,05,04,12,31,24.20
2015,05,04,12,32,14.50
2015,05,04,12,33,14.50
2015,05,04,12,34,24.20
2015,05,04,12,35,11.30
2015,05,04,12,36,12.90
2015,05,04,12,37,14.50
2015,05,04,12,38,9.60
2015,05,04,12,39,16.10
2015,05,04,12,40,14.50
2015,05,04,12,41,16.10
2015,05,04,12,42,12.90
2015,05,04,12,43,19.30
2015,05,04,12,44,6.40
2015,05,04,12,45,16.10
2015,05,04,12,46,14.50
2015,05,04,12,47,19.30
2015,05,04,12,48,16.10
2015,05,04,12,49,8.10
2015,05,04,12,50,14.50
2015,05,04,12,51,14.50
2015,05,04,12,52,14.50
2015,05,04,12,53,20.90
2015,05,04,12,54,11.30
2015,05,04,12,55,19.30
2015,05,04,12,56,9.60
2015,05,04,12,57,6.40
2015,05,04,12,58,16.10
2015,05,04,12,59,14.50
2015,05,04,13,00,27.40
2015,05,04,13,01,14.50
2015,05,04,13,02,4.80
2015,05,04,13,03,16.10
2015,05,04,13,04,19.30
2015,05,04,13,05,8.10
2015,05,04,13,06,16.10
2015,05,04,13,07,4.80
2015,05,04,13,08,19.30
2015,05,04,13,09,20.90
2015,05,04,13,10,19.30
2015,05,04,13,11,20.90
2015,05,04,13,12,25.70
2015,05,04,13,13,16.10
2015,05,04,13,14,25.70
2015,05,04,13,15,20.90
2015,05,04,13,16,20.90
2015,05,04,13,17,20.90
2015,05,04,13,18,32.20
2015,05,04,13,19,16.10
2015,05,04,13,20,25.70
2015,05,04,13,21,19.30
2015,05,04,13,22,20.90
2015,05,04,13,23,12.90
2015,05,04,13,24,22.50
2015,05,04,13,25,6.40
2015,05,04,13,26,17.70
2015,05,04,13,27,19.30
2015,05,04,13,28,22.50
2015,05,04,13,29,17.70
2015,05,04,13,30,16.10
2015,05,04,13,31,19.30
2015,05,04,13,32,14.50
2015,05,04,13,33,11.30
2015,05,04,13,34,12.90
2015,05,04,13,35,14.50
2015,05,04,13,36,11.30
2015,05,04,13,37,17.70
2015,05,04,13,38,9.60
2015,05,04,13,39,19.30
2015,05,04,13,40,19.30
2015,05,04,13,41,11.30
2015,05,04,13,42,6.40
2015,05,04,13,43,12.90
2015,05,04,13,44,8.10
2015,05,04,13,45,11.30
2015,05,04,13,46,11.30
2015,05,04,13,47,24.20
2015,05,04,13,48,16.10
2015,05,04,13,49,17.70
2015,05,04,13,50,19.30
2015,05,04,13,51,17.70
2015,05,04,13,52,16.10
2015,05,04,13,53,22.50
2015,05,04,13,54,16.10
2015,05,04,13,55,22.50
2015,05,04,13,56,19.30
2015,05,04,13,57,20.90
2015,05,04,13,58,12.90
2015,05,04,13,59,14.50
2015,05,04,14,00,20.90
2015,05,04,14,01,19.30
2015,05,04,14,02,19.30
2015,05,04,14,03,8.10
2015,05,04,14,04,27.40
2015,05,04,14,05,24.20
2015,05,04,14,06,17.70
2015,05,04,14,07,25.70
2015,05,04,14,08,20.90
2015,05,04,14,09,19.30
2015,05,04,14,10,24.20
2015,05,04,14,11,14.50
2015,05,04,14,12,16.10
2015,05,04,14,13,16.10
2015,05,04,14,14,11.30
2015,05,04,14,15,29.00
2015,05,04,14,16,20.90
2015,05,04,14,17,24.20
2015,05,04,14,18,22.50
2015,05,04,14,19,22.50
2015,05,04,14,20,37.00
2015,05,04,14,21,17.70
2015,05,04,14,22,20.90
2015,05,04,14,23,14.50
2015,05,04,14,24,17.70
2015,05,04,14,25,22.50
2015,05,04,14,26,20.90
2015,05,04,14,27,25.70
2015,05,04,14,28,17.70
2015,05,04,14,29,20.90
2015,05,04,14,30,16.10
2015,05,04,14,31,19.30
2015,05,04,14,32,24.20
2015,05,04,14,33,8.10
2015,05,04,14,34,16.10
2015,05,04,14,35,17.70
2015,05,04,14,36,25.70
2015,05,04,14,37,9.60
2015,05,04,14,38,17.70
2015,05,04,14,39,14.50
2015,05,04,14,40,9.60
2015,05,04,14,41,24.20
2015,05,04,14,42,17.70
2015,05,04,14,43,16.10
2015,05,04,14,44,12.90
2015,05,04,14,45,24.20
2015,05,04,14,46,24.20
2015,05,04,14,47,32.20
2015,05,04,14,48,19.30
2015,05,04,14,49,24.20
2015,05,04,14,50,17.70
2015,05,04,14,51,22.50
2015,05,04,14,52,20.90
2015,05,04,14,53,22.50
2015,05,04,14,54,16.10
2015,05,04,14,55,25.70
2015,05,04,14,56,29.00
2015,05,04,14,57,14.50
2015,05,04,14,58,12.90
2015,05,04,14,59,27.40
2015,05,04,15,00,22.50
2015,05,04,15,01,30.60
2015,05,04,15,02,12.90
2015,05,04,15,03,29.00
2015,05,04,15,04,24.20
2015,05,04,15,05,19.30
2015,05,04,15,06,17.70
2015,05,04,15,07,17.70
2015,05,04,15,08,27.40
2015,05,04,15,09,19.30
2015,05,04,15,10,17.70
2015,05,04,15,11,17.70
2015,05,04,15,12,19.30
2015,05,04,15,13,19.30
2015,05,04,15,14,27.40
2015,05,04,15,15,9.60
2015,05,04,15,16,22.50
2015,05,04,15,17,27.40
2015,05,04,15,18,45.10
2015,05,04,15,19,37.00
2015,05,04,15,20,20.90
2015,05,04,15,21,19.30
2015,05,04,15,22,27.40
2015,05,04,15,23,30.60
2015,05,04,15,24,22.50
2015,05,04,15,25,22.50
2015,05,04,15,26,8.10
2015,05,04,15,27,6.40
2015,05,04,15,28,8.10
2015,05,04,15,29,11.30
2015,05,04,15,30,11.30
2015,05,04,15,31,11.30
2015,05,04,15,32,8.10
2015,05,04,15,33,17.70
2015,05,04,15,34,4.80
2015,05,04,15,35,11.30
2015,05,04,15,36,20.90
2015,05,04,15,37,24.20
2015,05,04,15,38,20.90
2015,05,04,15,39,19.30
2015,05,04,15,40,20.90
2015,05,04,15,41,16.10
2015,05,04,15,42,14.50
2015,05,04,15,43,12.90
2015,05,04,15,44,22.50
2015,05,04,15,45,25.70
2015,05,04,15,46,9.60
2015,05,04,15,47,11.30
2015,05,04,15,48,20.90
2015,05,04,15,49,16.10
2015,05,04,15,50,11.30
2015,05,04,15,51,11.30
2015,05,04,15,52,17.70
2015,05,04,15,53,20.90
2015,05,04,15,54,16.10
2015,05,04,15,55,6.40
2015,05,04,15,56,9.60
2015,05,04,15,57,4.80
2015,05,04,15,58,16.10
2015,05,04,15,59,11.30
2015,05,04,16,00,14.50
2015,05,04,16,01,9.60
2015,05,04,16,02,4.80
2015,05,04,16,03,9.60
2015,05,04,16,04,9.60
2015,05,04,16,05,6.40
2015,05,04,16,06,16.10
2015,05,04,16,07,16.10
2015,05,04,16,08,6.40
2015,05,04,16,09,4.80
2015,05,04,16,10,12.90
2015,05,04,16,11,14.50
2015,05,04,16,12,11.30
2015,05,04,16,13,9.60
2015,05,04,16,14,16.10
2015,05,04,16,15,6.40
2015,05,04,16,16,9.60
2015,05,04,16,17,4.80
2015,05,04,16,18,11.30
2015,05,04,16,19,9.60
2015,05,04,16,20,8.10
2015,05,04,16,21,9.60
2015,05,04,16,22,3.20
2015,05,04,16,23,8.10
2015,05,04,16,24,16.10
2015,05,04,16,25,4.80
2015,05,04,16,26,12.90
2015,05,04,16,27,12.90
2015,05,04,16,28,12.90
2015,05,04,16,29,17.70
2015,05,04,16,30,16.10
2015,05,04,16,31,14.50
2015,05,04,16,32,9.60
2015,05,04,16,33,9.60
2015,05,04,16,34,9.60
2015,05,04,16,35,12.90
2015,05,04,16,36,11.30
2015,05,04,16,37,20.90
2015,05,04,16,38,16.10
2015,05,04,16,39,14.50
2015,05,04,16,40,19.30
2015,05,04,16,41,19.30
2015,05,04,16,42,11.30
2015,05,04,16,43,11.30
2015,05,04,16,44,19.30
2015,05,04,16,45,17.70
2015,05,04,16,46,19.30
2015,05,04,16,47,14.50
2015,05,04,16,48,11.30
2015,05,04,16,49,6.40
2015,05,04,16,50,9.60
2015,05,04,16,51,20.90
2015,05,04,16,52,9.60
2015,05,04,16,53,11.30
2015,05,04,16,54,11.30
2015,05,04,16,55,25.70
2015,05,04,16,56,29.00
2015,05,04,16,57,9.60
2015,05,04,16,58,12.90
2015,05,04,16,59,11.30
2015,05,04,17,00,14.50
2015,05,04,17,01,12.90
2015,05,04,17,02,17.70
2015,05,04,17,03,9.60
2015,05,04,17,04,25.70
2015,05,04,17,05,22.50
2015,05,04,17,06,20.90
2015,05,04,17,07,14.50
2015,05,04,17,08,6.40
2015,05,04,17,09,11.30
2015,05,04,17,10,12.90
2015,05,04,17,11,14.50
2015,05,04,17,12,17.70
2015,05,04,17,13,8.10
2015,05,04,17,14,11.30
2015,05,04,17,15,11.30
2015,05,04,17,16,16.10
2015,05,04,17,17,11.30
2015,05,04,17,18,8.10
2015,05,04,17,19,4.80
2015,05,04,17,20,4.80
2015,05,04,17,21,6.40
2015,05,04,17,22,17.70
2015,05,04,17,23,19.30
2015,05,04,17,24,11.30
2015,05,04,17,25,19.30
2015,05,04,17,26,8.10
2015,05,04,17,27,4.80
2015,05,04,17,28,11.30
2015,05,04,17,29,12.90
2015,05,04,17,30,4.80
2015,05,04,17,31,12.90
2015,05,04,17,32,12.90
2015,05,04,17,33,11.30
2015,05,04,17,34,8.10
2015,05,04,17,35,14.50
2015,05,04,17,36,8.10
2015,05,04,17,37,19.30
2015,05,04,17,38,16.10
2015,05,04,17,39,3.20
2015,05,04,17,40,17.70
2015,05,04,17,41,12.90
2015,05,04,17,42,8.10
2015,05,04,17,43,11.30
2015,05,04,17,44,16.10
2015,05,04,17,45,16.10
2015,05,04,17,46,17.70
2015,05,04,17,47,14.50
2015,05,04,17,48,16.10
2015,05,04,17,49,4.80
2015,05,04,17,50,19.30
2015,05,04,17,51,14.50
2015,05,04,17,52,6.40
2015,05,04,17,53,14.50
2015,05,04,17,54,17.70
2015,05,04,17,55,9.60
2015,05,04,17,56,16.10
2015,05,04,17,57,9.60
2015,05,04,17,58,9.60
2015,05,04,17,59,9.60
2015,05,04,18,00,11.30
2015,05,04,18,01,12.90
2015,05,04,18,02,19.30
2015,05,04,18,03,19.30
2015,05,04,18,04,14.50
2015,05,04,18,05,17.70
2015,05,04,18,06,12.90
2015,05,04,18,07,14.50
2015,05,04,18,08,14.50
2015,05,04,18,09,20.90
2015,05,04,18,10,19.30
2015,05,04,18,11,14.50
2015,05,04,18,12,16.10
2015,05,04,18,13,12.90
2015,05,04,18,14,12.90
2015,05,04,18,15,12.90
2015,05,04,18,16,14.50
2015,05,04,18,17,14.50
2015,05,04,18,18,16.10
2015,05,04,18,19,14.50
2015,05,04,18,20,11.30
2015,05,04,18,21,3.20
2015,05,04,18,22,12.90
2015,05,04,18,23,14.50
2015,05,04,18,24,6.40
2015,05,04,18,25,8.10
2015,05,04,18,26,9.60
2015,05,04,18,27,17.70
2015,05,04,18,28,19.30
2015,05,04,18,29,9.60
2015,05,04,18,30,12.90
2015,05,04,18,31,6.40
2015,05,04,18,32,6.40
2015,05,04,18,33,11.30
2015,05,04,18,34,11.30
2015,05,04,18,35,4.80
2015,05,04,18,36,17.70
2015,05,04,18,37,9.60
2015,05,04,18,38,6.40
2015,05,04,18,39,17.70
2015,05,04,18,40,3.20
2015,05,04,18,41,4.80
2015,05,04,18,42,3.20
2015,05,04,18,43,9.60
2015,05,04,18,44,17.70
2015,05,04,18,45,4.80
2015,05,04,18,46,6.40
2015,05,04,18,47,3.20
2015,05,04,18,48,4.80
2015,05,04,18,49,14.50
2015,05,04,18,50,6.40
2015,05,04,18,51,1.60
2015,05,04,18,52,6.40
2015,05,04,18,53,11.30
2015,05,04,18,54,8.10
2015,05,04,18,55,6.40
2015,05,04,18,56,14.50
2015,05,04,18,57,12.90
2015,05,04,18,58,6.40
2015,05,04,18,59,9.60
2015,05,04,19,00,3.20
2015,05,04,19,01,6.40
2015,05,04,19,02,12.90
2015,05,04,19,03,6.40
2015,05,04,19,04,6.40
2015,05,04,19,05,8.10
2015,05,04,19,06,6.40
2015,05,04,19,07,3.20
2015,05,04,19,08,3.20
2015,05,04,19,09,4.80
2015,05,04,19,10,6.40
2015,05,04,19,11,12.90
2015,05,04,19,12,11.30
2015,05,04,19,13,11.30
2015,05,04,19,14,6.40
2015,05,04,19,15,4.80
2015,05,04,19,16,8.10
2015,05,04,19,17,8.10
2015,05,04,19,18,4.80
2015,05,04,19,19,4.80
2015,05,04,19,20,3.20
2015,05,04,19,21,3.20
2015,05,04,19,22,11.30
2015,05,04,19,23,11.30
2015,05,04,19,24,4.80
2015,05,04,19,25,1.60
2015,05,04,19,26,3.20
2015,05,04,19,27,3.20
2015,05,04,19,28,4.80
2015,05,04,19,29,4.80
2015,05,04,19,30,4.80
2015,05,04,19,31,6.40
2015,05,04,19,32,12.90
2015,05,04,19,33,4.80
2015,05,04,19,34,12.90
2015,05,04,19,35,3.20
2015,05,04,19,36,6.40
2015,05,04,19,37,6.40
2015,05,04,19,38,6.40
2015,05,04,19,39,3.20
2015,05,04,19,40,1.60
2015,05,04,19,41,3.20
2015,05,04,19,42,3.20
2015,05,04,19,43,1.60
2015,05,04,19,44,4.80
2015,05,04,19,45,9.60
2015,05,04,19,46,3.20
2015,05,04,19,47,16.10
2015,05,04,19,48,12.90
2015,05,04,19,49,11.30
2015,05,04,19,50,6.40
2015,05,04,19,51,3.20
2015,05,04,19,52,4.80
2015,05,04,19,53,3.20
2015,05,04,19,54,8.10
2015,05,04,19,55,3.20
2015,05,04,19,56,4.80
2015,05,04,19,57,3.20
2015,05,04,19,58,3.20
2015,05,04,19,59,4.80
2015,05,04,20,00,4.80
2015,05,04,20,01,3.20
2015,05,04,20,02,3.20
2015,05,04,20,03,6.40
2015,05,04,20,04,11.30
2015,05,04,20,05,3.20
2015,05,04,20,06,8.10
2015,05,04,20,07,4.80
2015,05,04,20,08,4.80
2015,05,04,20,09,11.30
2015,05,04,20,10,9.60
2015,05,04,20,11,6.40
2015,05,04,20,12,12.90
2015,05,04,20,13,8.10
2015,05,04,20,14,4.80
2015,05,04,20,15,17.70
2015,05,04,20,16,9.60
2015,05,04,20,17,4.80
2015,05,04,20,18,14.50
2015,05,04,20,19,11.30
2015,05,04,20,20,3.20
2015,05,04,20,21,17.70
2015,05,04,20,22,17.70
2015,05,04,20,23,12.90
2015,05,04,20,24,11.30
2015,05,04,20,25,9.60
2015,05,04,20,26,11.30
2015,05,04,20,27,8.10
2015,05,04,20,28,6.40
2015,05,04,20,29,4.80
2015,05,04,20,30,9.60
2015,05,04,20,31,3.20
2015,05,04,20,32,6.40
2015,05,04,20,33,3.20
2015,05,04,20,34,4.80
2015,05,04,20,35,11.30
2015,05,04,20,36,8.10
2015,05,04,20,37,9.60
2015,05,04,20,38,3.20
2015,05,04,20,39,4.80
2015,05,04,20,40,4.80
2015,05,04,20,41,4.80
2015,05,04,20,42,3.20
2015,05,04,20,43,8.10
2015,05,04,20,44,4.80
2015,05,04,20,45,1.60
2015,05,04,20,46,3.20
2015,05,04,20,47,3.20
2015,05,04,20,48,6.40
2015,05,04,20,49,14.50
2015,05,04,20,50,19.30
2015,05,04,20,51,8.10
2015,05,04,20,52,3.20
2015,05,04,20,53,8.10
2015,05,04,20,54,11.30
2015,05,04,20,55,6.40
2015,05,04,20,56,4.80
2015,05,04,20,57,4.80
2015,05,04,20,58,12.90
2015,05,04,20,59,14.50
2015,05,04,21,00,4.80
2015,05,04,21,01,3.20
2015,05,04,21,02,3.20
2015,05,04,21,03,6.40
2015,05,04,21,04,4.80
2015,05,04,21,05,12.90
2015,05,04,21,06,6.40
2015,05,04,21,07,14.50
2015,05,04,21,08,16.10
2015,05,04,21,09,6.40
2015,05,04,21,10,6.40
2015,05,04,21,11,9.60
2015,05,04,21,12,6.40
2015,05,04,21,13,4.80
2015,05,04,21,14,6.40
2015,05,04,21,15,4.80
2015,05,04,21,16,6.40
2015,05,04,21,17,4.80
2015,05,04,21,18,3.20
2015,05,04,21,19,3.20
2015,05,04,21,20,1.60
2015,05,04,21,21,1.60
2015,05,04,21,22,4.80
2015,05,04,21,23,3.20
2015,05,04,21,24,4.80
2015,05,04,21,25,4.80
2015,05,04,21,26,3.20
2015,05,04,21,27,3.20
2015,05,04,21,28,1.60
2015,05,04,21,29,1.60
2015,05,04,21,30,3.20
2015,05,04,21,31,3.20
2015,05,04,21,32,1.60
2015,05,04,21,33,3.20
2015,05,04,21,34,6.40
2015,05,04,21,35,8.10
2015,05,04,21,36,1.60
2015,05,04,21,37,6.40
2015,05,04,21,38,4.80
2015,05,04,21,39,4.80
2015,05,04,21,40,4.80
2015,05,04,21,41,6.40
2015,05,04,21,42,4.80
2015,05,04,21,43,6.40
2015,05,04,21,44,3.20
2015,05,04,21,45,3.20
2015,05,04,21,46,8.10
2015,05,04,21,47,6.40
2015,05,04,21,48,9.60
2015,05,04,21,49,6.40
2015,05,04,21,50,3.20
2015,05,04,21,51,4.80
2015,05,04,21,52,3.20
2015,05,04,21,53,4.80
2015,05,04,21,54,4.80
2015,05,04,21,55,3.20
2015,05,04,21,56,3.20
2015,05,04,21,57,3.20
2015,05,04,21,58,3.20
2015,05,04,21,59,4.80
2015,05,04,22,00,3.20
2015,05,04,22,01,3.20
2015,05,04,22,02,3.20
2015,05,04,22,03,3.20
2015,05,04,22,04,1.60
2015,05,04,22,05,1.60
2015,05,04,22,06,1.60
2015,05,04,22,07,3.20
2015,05,04,22,08,1.60
2015,05,04,22,09,3.20
2015,05,04,22,10,3.20
2015,05,04,22,11,4.80
2015,05,04,22,12,4.80
2015,05,04,22,13,3.20
2015,05,04,22,14,1.60
2015,05,04,22,15,4.80
2015,05,04,22,16,4.80
2015,05,04,22,17,4.80
2015,05,04,22,18,6.40
2015,05,04,22,19,6.40
2015,05,04,22,20,4.80
2015,05,04,22,21,4.80
2015,05,04,22,22,3.20
2015,05,04,22,23,4.80
2015,05,04,22,24,1.60
2015,05,04,22,25,4.80